Time,TemperatureF,DewpointF,PressureIn,WindDirection,WindDirectionDegrees,WindSpeedMPH,WindSpeedGustMPH,Humidity,HourlyPrecipIn,Conditions,Clouds,dailyrainin,SoftwareType,DateUTC
2013-02-23 00:03:00,34.0,-99.9,-100.00,North,1,1.0,5.0,-999,0.00,,,0.00,,2013-02-23 05:03:00,
2013-02-23 00:12:00,34.0,-99.9,-100.00,North,1,1.0,5.0,-999,0.00,,,0.00,,2013-02-23 05:12:00,
2013-02-23 00:23:00,34.0,-99.9,-100.00,North,1,1.0,5.0,-999,0.00,,,0.00,,2013-02-23 05:23:00,
2013-02-23 00:33:00,34.0,-99.9,-100.00,North,1,2.0,5.0,-999,0.00,,,0.00,,2013-02-23 05:33:00,
2013-02-23 00:42:00,34.0,-99.9,-100.00,North,1,2.0,5.0,-999,0.00,,,0.00,,2013-02-23 05:42:00,
2013-02-23 00:52:00,34.0,-99.9,-100.00,North,1,0.0,3.0,-999,0.00,,,0.00,,2013-02-23 05:52:00,
2013-02-23 01:02:00,34.0,-99.9,-100.00,North,1,0.0,3.0,-999,0.00,,,0.00,,2013-02-23 06:02:00,
2013-02-23 01:11:00,34.0,-99.9,-100.00,North,1,0.0,3.0,-999,0.00,,,0.00,,2013-02-23 06:11:00,
2013-02-23 01:23:00,34.0,-99.9,-100.00,North,0,0.0,3.0,-999,0.00,,,0.00,,2013-02-23 06:23:00,
2013-02-23 01:32:00,33.0,-99.9,-100.00,North,1,0.0,3.0,-999,0.00,,,0.00,,2013-02-23 06:32:00,
2013-02-23 01:42:00,33.0,-99.9,-100.00,North,1,0.0,3.0,-999,0.00,,,0.00,,2013-02-23 06:42:00,
2013-02-23 01:52:00,33.0,-99.9,-100.00,North,1,1.0,6.0,-999,0.00,,,0.00,,2013-02-23 06:52:00,
2013-02-23 02:01:00,33.0,-99.9,-100.00,North,1,0.0,2.0,-999,0.00,,,0.00,,2013-02-23 07:01:00,
2013-02-23 02:11:00,33.0,-99.9,-100.00,North,1,0.0,2.0,-999,0.00,,,0.00,,2013-02-23 07:11:00,
2013-02-23 02:21:00,33.0,-99.9,-100.00,North,1,0.0,6.0,-999,0.00,,,0.00,,2013-02-23 07:21:00,
2013-02-23 02:32:00,33.0,-99.9,-100.00,North,0,0.0,2.0,-999,0.00,,,0.00,,2013-02-23 07:32:00,
2013-02-23 02:42:00,33.0,-99.9,-100.00,North,0,0.0,2.0,-999,0.00,,,0.00,,2013-02-23 07:42:00,
2013-02-23 02:52:00,33.0,-99.9,-100.00,North,0,0.0,2.0,-999,0.00,,,0.00,,2013-02-23 07:52:00,
2013-02-23 03:01:00,33.0,-99.9,-100.00,North,1,1.0,3.0,-999,0.00,,,0.00,,2013-02-23 08:01:00,
2013-02-23 03:11:00,33.0,-99.9,-100.00,North,1,1.0,3.0,-999,0.00,,,0.00,,2013-02-23 08:11:00,
2013-02-23 03:22:00,34.0,-99.9,-100.00,North,0,1.0,3.0,-999,0.00,,,0.00,,2013-02-23 08:22:00,
2013-02-23 03:32:00,34.0,-99.9,-100.00,North,0,1.0,5.0,-999,0.00,,,0.00,,2013-02-23 08:32:00,
2013-02-23 03:42:00,34.0,-99.9,-100.00,North,0,1.0,5.0,-999,0.00,,,0.00,,2013-02-23 08:42:00,
2013-02-23 03:53:00,34.0,-99.9,-100.00,North,1,0.0,3.0,-999,0.00,,,0.00,,2013-02-23 08:53:00,
2013-02-23 04:02:00,34.0,-99.9,-100.00,North,1,0.0,3.0,-999,0.00,,,0.00,,2013-02-23 09:02:00,
2013-02-23 04:11:00,34.0,-99.9,-100.00,North,1,0.0,3.0,-999,0.00,,,0.00,,2013-02-23 09:11:00,
2013-02-23 04:22:00,34.0,-99.9,-100.00,North,1,0.0,3.0,-999,0.00,,,0.00,,2013-02-23 09:22:00,
2013-02-23 04:32:00,34.0,-99.9,-100.00,North,1,2.0,5.0,-999,0.00,,,0.00,,2013-02-23 09:32:00,
2013-02-23 04:42:00,34.0,-99.9,-100.00,North,1,2.0,5.0,-999,0.00,,,0.00,,2013-02-23 09:42:00,
2013-02-23 04:52:00,34.0,-99.9,-100.00,North,0,1.0,3.0,-999,0.00,,,0.00,,2013-02-23 09:52:00,
2013-02-23 05:01:00,34.0,-99.9,-100.00,North,0,2.0,3.0,-999,0.00,,,0.00,,2013-02-23 10:01:00,
2013-02-23 05:11:00,34.0,-99.9,-100.00,North,0,2.0,3.0,-999,0.00,,,0.00,,2013-02-23 10:11:00,
2013-02-23 05:21:00,34.0,-99.9,-100.00,North,1,2.0,5.0,-999,0.00,,,0.00,,2013-02-23 10:21:00,
2013-02-23 05:32:00,34.0,-99.9,-100.00,North,1,2.0,5.0,-999,0.00,,,0.00,,2013-02-23 10:32:00,
2013-02-23 05:42:00,34.0,-99.9,-100.00,North,1,2.0,5.0,-999,0.00,,,0.00,,2013-02-23 10:42:00,
2013-02-23 05:52:00,34.0,-99.9,-100.00,North,1,2.0,5.0,-999,0.00,,,0.00,,2013-02-23 10:52:00,
2013-02-23 06:02:00,34.0,-99.9,-100.00,North,1,2.0,5.0,-999,0.00,,,0.00,,2013-02-23 11:02:00,
2013-02-23 06:11:00,34.0,-99.9,-100.00,North,1,2.0,5.0,-999,0.00,,,0.00,,2013-02-23 11:11:00,
2013-02-23 06:22:00,34.0,-99.9,-100.00,North,0,2.0,7.0,-999,0.00,,,0.00,,2013-02-23 11:22:00,
2013-02-23 06:32:00,34.0,-99.9,-100.00,North,1,1.0,5.0,-999,0.00,,,0.00,,2013-02-23 11:32:00,
2013-02-23 06:42:00,34.0,-99.9,-100.00,North,1,1.0,5.0,-999,0.00,,,0.00,,2013-02-23 11:42:00,
2013-02-23 06:53:00,34.0,-99.9,-100.00,North,0,2.0,6.0,-999,0.00,,,0.00,,2013-02-23 11:53:00,
2013-02-23 07:02:00,34.0,-99.9,-100.00,North,0,2.0,3.0,-999,0.00,,,0.00,,2013-02-23 12:02:00,
2013-02-23 07:11:00,34.0,-99.9,-100.00,North,0,2.0,3.0,-999,0.00,,,0.00,,2013-02-23 12:11:00,
2013-02-23 07:22:00,34.0,-99.9,-100.00,North,0,0.0,3.0,-999,0.00,,,0.00,,2013-02-23 12:22:00,
2013-02-23 07:32:00,34.0,-99.9,-100.00,North,1,1.0,3.0,-999,0.00,,,0.00,,2013-02-23 12:32:00,
2013-02-23 07:42:00,34.0,-99.9,-100.00,North,1,1.0,3.0,-999,0.00,,,0.00,,2013-02-23 12:42:00,
2013-02-23 07:53:00,34.0,-99.9,-100.00,North,0,2.0,3.0,-999,0.00,,,0.00,,2013-02-23 12:53:00,
2013-02-23 08:02:00,35.0,-99.9,-100.00,North,0,2.0,5.0,-999,0.00,,,0.00,,2013-02-23 13:02:00,
2013-02-23 08:12:00,35.0,-99.9,-100.00,North,0,2.0,5.0,-999,0.00,,,0.00,,2013-02-23 13:12:00,
2013-02-23 08:22:00,35.0,-99.9,-100.00,North,0,0.0,3.0,-999,0.00,,,0.00,,2013-02-23 13:22:00,
2013-02-23 08:32:00,35.0,-99.9,-100.00,North,0,1.0,3.0,-999,0.00,,,0.00,,2013-02-23 13:32:00,
2013-02-23 08:42:00,35.0,-99.9,-100.00,North,0,1.0,3.0,-999,0.00,,,0.00,,2013-02-23 13:42:00,
2013-02-23 08:52:00,35.0,-99.9,-100.00,North,0,1.0,3.0,-999,0.00,,,0.00,,2013-02-23 13:52:00,
2013-02-23 09:02:00,36.0,-99.9,-100.00,North,1,0.0,3.0,-999,0.00,,,0.00,,2013-02-23 14:02:00,
2013-02-23 09:11:00,36.0,-99.9,-100.00,North,1,0.0,3.0,-999,0.00,,,0.00,,2013-02-23 14:11:00,
2013-02-23 09:22:00,36.0,-99.9,-100.00,North,0,3.0,5.0,-999,0.00,,,0.00,,2013-02-23 14:22:00,
2013-02-23 09:33:00,36.0,-99.9,-100.00,North,1,1.0,3.0,-999,0.00,,,0.00,,2013-02-23 14:33:00,
2013-02-23 09:42:00,36.0,-99.9,-100.00,North,1,1.0,3.0,-999,0.00,,,0.00,,2013-02-23 14:42:00,
2013-02-23 09:52:00,36.0,-99.9,-100.00,North,0,1.0,3.0,-999,0.00,,,0.00,,2013-02-23 14:52:00,
2013-02-23 10:02:00,36.0,-99.9,-100.00,North,0,0.0,2.0,-999,0.00,,,0.00,,2013-02-23 15:02:00,
2013-02-23 10:11:00,36.0,-99.9,-100.00,North,0,0.0,2.0,-999,0.00,,,0.00,,2013-02-23 15:11:00,
2013-02-23 10:22:00,36.0,-99.9,-100.00,North,0,0.0,0.0,-999,0.00,,,0.00,,2013-02-23 15:22:00,
2013-02-23 10:32:00,37.0,-99.9,-100.00,North,0,0.0,1.0,-999,0.00,,,0.00,,2013-02-23 15:32:00,
2013-02-23 10:42:00,37.0,-99.9,-100.00,North,0,0.0,1.0,-999,0.00,,,0.00,,2013-02-23 15:42:00,
2013-02-23 10:52:00,37.0,-99.9,-100.00,North,0,0.0,1.0,-999,0.00,,,0.00,,2013-02-23 15:52:00,
2013-02-23 11:01:00,37.0,-99.9,-100.00,North,0,3.0,3.0,-999,0.00,,,0.00,,2013-02-23 16:01:00,
2013-02-23 11:11:00,37.0,-99.9,-100.00,North,0,3.0,3.0,-999,0.00,,,0.00,,2013-02-23 16:11:00,
2013-02-23 11:22:00,37.0,-99.9,-100.00,North,0,1.0,3.0,-999,0.00,,,0.00,,2013-02-23 16:22:00,
2013-02-23 11:32:00,37.0,-99.9,-100.00,North,0,0.0,3.0,-999,0.00,,,0.00,,2013-02-23 16:32:00,
2013-02-23 11:42:00,37.0,-99.9,-100.00,North,0,0.0,3.0,-999,0.00,,,0.00,,2013-02-23 16:42:00,
2013-02-23 11:52:00,37.0,-99.9,-100.00,North,0,0.0,3.0,-999,0.00,,,0.00,,2013-02-23 16:52:00,
2013-02-23 12:01:00,37.0,-99.9,-100.00,North,1,1.0,3.0,-999,0.00,,,0.00,,2013-02-23 17:01:00,
2013-02-23 12:11:00,37.0,-99.9,-100.00,North,1,1.0,3.0,-999,0.00,,,0.00,,2013-02-23 17:11:00,
2013-02-23 12:22:00,37.0,-99.9,-100.00,North,0,0.0,5.0,-999,0.00,,,0.00,,2013-02-23 17:22:00,
2013-02-23 12:32:00,37.0,-99.9,-100.00,North,0,0.0,5.0,-999,0.00,,,0.00,,2013-02-23 17:32:00,
2013-02-23 12:42:00,37.0,-99.9,-100.00,North,0,0.0,5.0,-999,0.00,,,0.00,,2013-02-23 17:42:00,
2013-02-23 12:52:00,38.0,-99.9,-100.00,NE,51,2.0,3.0,-999,0.00,,,0.00,,2013-02-23 17:52:00,
2013-02-23 13:02:00,38.0,-99.9,-100.00,NE,51,2.0,3.0,-999,0.00,,,0.00,,2013-02-23 18:02:00,
2013-02-23 13:12:00,38.0,-99.9,-100.00,NE,51,2.0,3.0,-999,0.00,,,0.00,,2013-02-23 18:12:00,
2013-02-23 13:22:00,38.0,-99.9,-100.00,North,0,0.0,3.0,-999,0.00,,,0.00,,2013-02-23 18:22:00,
2013-02-23 13:32:00,39.0,-99.9,-100.00,North,1,1.0,3.0,-999,0.01,,,0.01,,2013-02-23 18:32:00,
2013-02-23 13:42:00,39.0,-99.9,-100.00,North,1,1.0,3.0,-999,0.01,,,0.01,,2013-02-23 18:42:00,
2013-02-23 13:52:00,39.0,-99.9,-100.00,North,1,1.0,3.0,-999,0.01,,,0.01,,2013-02-23 18:52:00,
2013-02-23 14:02:00,39.0,-99.9,-100.00,North,1,1.0,3.0,-999,0.01,,,0.01,,2013-02-23 19:02:00,
2013-02-23 14:12:00,39.0,-99.9,-100.00,North,1,1.0,3.0,-999,0.01,,,0.01,,2013-02-23 19:12:00,
2013-02-23 14:52:00,40.0,-99.9,-100.00,North,0,2.0,3.0,-999,0.03,,,0.04,,2013-02-23 19:52:00,
2013-02-23 15:01:00,40.0,-99.9,-100.00,North,0,2.0,5.0,-999,0.03,,,0.04,,2013-02-23 20:01:00,
2013-02-23 15:11:00,40.0,-99.9,-100.00,North,0,2.0,5.0,-999,0.03,,,0.04,,2013-02-23 20:11:00,
2013-02-23 15:22:00,40.0,-99.9,-100.00,North,0,2.0,5.0,-999,0.03,,,0.04,,2013-02-23 20:22:00,
2013-02-23 15:32:00,40.0,-99.9,-100.00,North,0,3.0,7.0,-999,0.01,,,0.05,,2013-02-23 20:32:00,
2013-02-23 15:42:00,40.0,-99.9,-100.00,North,0,3.0,7.0,-999,0.01,,,0.05,,2013-02-23 20:42:00,
2013-02-23 15:53:00,39.0,-99.9,-100.00,North,0,2.0,6.0,-999,0.01,,,0.05,,2013-02-23 20:53:00,
2013-02-23 16:02:00,39.0,-99.9,-100.00,North,0,3.0,5.0,-999,0.01,,,0.06,,2013-02-23 21:02:00,
2013-02-23 16:12:00,39.0,-99.9,-100.00,North,0,3.0,5.0,-999,0.01,,,0.06,,2013-02-23 21:12:00,
2013-02-23 16:22:00,39.0,-99.9,-100.00,North,0,2.0,6.0,-999,0.01,,,0.06,,2013-02-23 21:22:00,
2013-02-23 16:32:00,39.0,-99.9,-100.00,North,1,3.0,7.0,-999,0.01,,,0.06,,2013-02-23 21:32:00,
2013-02-23 16:42:00,39.0,-99.9,-100.00,North,1,3.0,7.0,-999,0.01,,,0.06,,2013-02-23 21:42:00,
2013-02-23 16:52:00,39.0,-99.9,-100.00,North,1,3.0,7.0,-999,0.01,,,0.06,,2013-02-23 21:52:00,
2013-02-23 17:02:00,38.0,-99.9,-100.00,North,0,1.0,6.0,-999,0.01,,,0.06,,2013-02-23 22:02:00,
2013-02-23 17:11:00,38.0,-99.9,-100.00,North,0,1.0,6.0,-999,0.01,,,0.06,,2013-02-23 22:11:00,
2013-02-23 17:22:00,38.0,-99.9,-100.00,North,0,1.0,6.0,-999,0.01,,,0.06,,2013-02-23 22:22:00,
2013-02-23 17:32:00,38.0,-99.9,-100.00,North,0,1.0,6.0,-999,0.00,,,0.06,,2013-02-23 22:32:00,
2013-02-23 17:42:00,38.0,-99.9,-100.00,North,0,1.0,6.0,-999,0.00,,,0.06,,2013-02-23 22:42:00,
2013-02-23 17:52:00,38.0,-99.9,-100.00,North,0,3.0,10.0,-999,0.00,,,0.06,,2013-02-23 22:52:00,
2013-02-23 18:02:00,37.0,-99.9,-100.00,North,1,1.0,8.0,-999,0.00,,,0.06,,2013-02-23 23:02:00,
2013-02-23 18:11:00,37.0,-99.9,-100.00,North,1,1.0,8.0,-999,0.00,,,0.06,,2013-02-23 23:11:00,
2013-02-23 18:22:00,37.0,-99.9,-100.00,North,1,1.0,8.0,-999,0.00,,,0.06,,2013-02-23 23:22:00,
2013-02-23 18:32:00,37.0,-99.9,-100.00,North,1,1.0,8.0,-999,0.00,,,0.06,,2013-02-23 23:32:00,
2013-02-23 18:42:00,37.0,-99.9,-100.00,North,1,1.0,8.0,-999,0.00,,,0.06,,2013-02-23 23:42:00,
2013-02-23 18:52:00,37.0,-99.9,-100.00,North,1,3.0,9.0,-999,0.00,,,0.06,,2013-02-23 23:52:00,
2013-02-23 19:02:00,37.0,-99.9,-100.00,North,0,4.0,13.0,-999,0.00,,,0.06,,2013-02-24 00:02:00,
2013-02-23 19:11:00,37.0,-99.9,-100.00,North,0,4.0,13.0,-999,0.00,,,0.06,,2013-02-24 00:11:00,
2013-02-23 19:22:00,37.0,-99.9,-100.00,North,0,2.0,12.0,-999,0.00,,,0.06,,2013-02-24 00:22:00,
2013-02-23 19:32:00,37.0,-99.9,-100.00,North,0,7.0,12.0,-999,0.00,,,0.06,,2013-02-24 00:32:00,
2013-02-23 19:42:00,37.0,-99.9,-100.00,North,0,7.0,12.0,-999,0.00,,,0.06,,2013-02-24 00:42:00,
2013-02-23 19:52:00,37.0,-99.9,-100.00,North,0,7.0,12.0,-999,0.00,,,0.06,,2013-02-24 00:52:00,
2013-02-23 20:01:00,37.0,-99.9,-100.00,North,0,5.0,12.0,-999,0.00,,,0.06,,2013-02-24 01:01:00,
2013-02-23 20:11:00,37.0,-99.9,-100.00,North,0,5.0,12.0,-999,0.00,,,0.06,,2013-02-24 01:11:00,
2013-02-23 20:22:00,36.0,-99.9,-100.00,North,0,0.0,5.0,-999,0.00,,,0.06,,2013-02-24 01:22:00,
2013-02-23 20:32:00,36.0,-99.9,-100.00,North,0,0.0,5.0,-999,0.00,,,0.06,,2013-02-24 01:32:00,
2013-02-23 20:42:00,36.0,-99.9,-100.00,North,0,0.0,5.0,-999,0.00,,,0.06,,2013-02-24 01:42:00,
2013-02-23 20:52:00,36.0,-99.9,-100.00,North,0,3.0,5.0,-999,0.00,,,0.06,,2013-02-24 01:52:00,
2013-02-23 21:01:00,36.0,-99.9,-100.00,North,0,0.0,3.0,-999,0.00,,,0.06,,2013-02-24 02:01:00,
2013-02-23 21:12:00,36.0,-99.9,-100.00,North,0,0.0,3.0,-999,0.00,,,0.06,,2013-02-24 02:12:00,
2013-02-23 21:22:00,35.0,-99.9,-100.00,North,0,0.0,0.0,-999,0.00,,,0.06,,2013-02-24 02:22:00,
2013-02-23 21:32:00,35.0,-99.9,-100.00,North,0,1.0,6.0,-999,0.00,,,0.06,,2013-02-24 02:32:00,
2013-02-23 21:42:00,35.0,-99.9,-100.00,North,0,1.0,6.0,-999,0.00,,,0.06,,2013-02-24 02:42:00,
2013-02-23 21:52:00,35.0,-99.9,-100.00,North,0,3.0,5.0,-999,0.01,,,0.07,,2013-02-24 02:52:00,
2013-02-23 22:02:00,36.0,-99.9,-100.00,North,0,3.0,6.0,-999,0.01,,,0.07,,2013-02-24 03:02:00,
2013-02-23 22:12:00,36.0,-99.9,-100.00,North,0,3.0,6.0,-999,0.01,,,0.07,,2013-02-24 03:12:00,
2013-02-23 22:22:00,36.0,-99.9,-100.00,North,0,3.0,7.0,-999,0.01,,,0.07,,2013-02-24 03:22:00,
2013-02-23 22:32:00,35.0,-99.9,-100.00,North,0,2.0,7.0,-999,0.01,,,0.07,,2013-02-24 03:32:00,
2013-02-23 22:42:00,35.0,-99.9,-100.00,North,0,2.0,7.0,-999,0.01,,,0.07,,2013-02-24 03:42:00,
2013-02-23 22:52:00,35.0,-99.9,-100.00,North,0,1.0,5.0,-999,0.00,,,0.07,,2013-02-24 03:52:00,
2013-02-23 23:02:00,35.0,-99.9,-100.00,North,0,1.0,3.0,-999,0.00,,,0.07,,2013-02-24 04:02:00,
2013-02-23 23:11:00,35.0,-99.9,-100.00,North,0,1.0,3.0,-999,0.00,,,0.07,,2013-02-24 04:11:00,
2013-02-23 23:22:00,35.0,-99.9,-100.00,North,0,3.0,7.0,-999,0.00,,,0.07,,2013-02-24 04:22:00,
2013-02-23 23:32:00,35.0,-99.9,-100.00,North,0,0.0,3.0,-999,0.00,,,0.07,,2013-02-24 04:32:00,
2013-02-23 23:42:00,35.0,-99.9,-100.00,North,0,0.0,3.0,-999,0.00,,,0.07,,2013-02-24 04:42:00,
2013-02-23 23:52:00,35.0,-99.9,-100.00,North,0,0.0,3.0,-999,0.00,,,0.07,,2013-02-24 04:52:00,